Weather History for Erie, PA

Change the Weather History Date:

Tuesday, August 6, 2013

  Actual Average Record
Temperature  
Mean Temperature 70 °F 71 °F  
Max Temperature 79 °F 79 °F 96 °F (1918)
Min Temperature 60 °F 64 °F 49 °F (1957)
Degree Days  
Heating Degree Days 0 0  
Month to date heating degree days 3 0  
Since 1 June heating degree days 74 68  
Since 1 July heating degree days 6 7  
Cooling Degree Days 5 7  
Month to date cooling degree days 21 42  
Year to date cooling degree days 471 417  
Since 1 June cooling degree days 386 378  
Growing Degree Days 20 (Base 50)    
Moisture  
Dew Point 55 °F    
Average Humidity 62    
Maximum Humidity 78    
Minimum Humidity 45    
Precipitation  
Precipitation 0.00 in 0.12 in 1.87 in (1962)
Month to date precipitation 0.72 0.70  
Year to date precipitation 30.85 23.06  
Snow  
Snow 0.00 in 0.00 in - ()
Month to date snowfall 0.0 0.0  
Since 1 June snowfall 0.0 0.0  
Since 1 July snowfall 0.0 0.0  
Snow Depth 0.00 in    
Sea Level Pressure  
Sea Level Pressure 30.00 in    
Wind  
Wind Speed 6 mph (SSE)    
Max Wind Speed 13 mph    
Max Gust Speed 16 mph    
Visibility 10 miles    
Events      
T = Trace of Precipitation, MM = Missing Value Source: NWS Daily Summary

Daily Weather History Graph

Daily Weather History Graph

Search for Another Location

Airport:

Trip Planner

Search our weather history database for the weather conditions in past years. The results will help you decide how hot, cold, wet, or windy it might be!

Date:

Astronomy

Aug. 06, 2013 Rise Set
Actual Time 6:19 AM EDT 8:33 PM EDT
Civil Twilight 5:48 AM EDT 9:04 PM EDT
Nautical Twilight 5:09 AM EDT 9:42 PM EDT
Astronomical Twilight 4:27 AM EDT 10:24 PM EDT
Moon 6:10 AM EDT (8/6) 8:05 PM EDT (8/6)
Length of Visible Light 15h 15m
Length of Day
14h 13m
Waning Crescent, 0% of the Moon is Illuminated
Aug 6
Waning Crescent
Aug 6
New
Aug 14
First Quarter
Aug 20
Full
Aug 28
Last Quarter

Hourly Weather History & Observations

Time (EDT) Temp. Dew Point Humidity Pressure Visibility Wind Dir Wind Speed Gust Speed Precip Events Conditions
12:51 AM 61.0 °F 53.1 °F 75% 30.02 in 10.0 mi South 8.1 mph - N/A   Clear
1:51 AM 61.0 °F 52.0 °F 72% 30.02 in 10.0 mi South 5.8 mph - N/A   Mostly Cloudy
2:51 AM 61.0 °F 52.0 °F 72% 30.02 in 10.0 mi South 5.8 mph - N/A   Overcast
3:51 AM 62.1 °F 52.0 °F 70% 30.01 in 10.0 mi South 8.1 mph - N/A   Overcast
4:51 AM 62.1 °F 51.1 °F 67% 30.01 in 10.0 mi South 8.1 mph - N/A   Overcast
5:51 AM 62.1 °F 51.1 °F 67% 30.02 in 10.0 mi South 6.9 mph - N/A   Mostly Cloudy
6:51 AM 62.1 °F 51.1 °F 67% 30.02 in 10.0 mi South 8.1 mph - N/A   Overcast
7:51 AM 63.0 °F 52.0 °F 67% 30.01 in 10.0 mi SSE 11.5 mph - N/A   Mostly Cloudy
8:51 AM 66.9 °F 53.1 °F 61% 30.03 in 10.0 mi South 9.2 mph - N/A   Clear
9:51 AM 71.1 °F 53.1 °F 53% 30.04 in 10.0 mi South 9.2 mph - N/A   Clear
10:51 AM 73.9 °F 54.0 °F 50% 30.03 in 10.0 mi South 5.8 mph - N/A   Clear
11:51 AM 75.9 °F 54.0 °F 46% 30.03 in 10.0 mi SSW 8.1 mph - N/A   Clear
12:51 PM 78.1 °F 55.0 °F 45% 30.00 in 10.0 mi Variable 4.6 mph - N/A   Clear
1:51 PM 77.0 °F 55.9 °F 48% 30.00 in 10.0 mi NW 3.5 mph - N/A   Partly Cloudy
2:39 PM 78.8 °F 57.2 °F 47% 30.00 in 10.0 mi North 5.8 mph - N/A   Partly Cloudy
2:51 PM 79.0 °F 57.9 °F 48% 29.99 in 10.0 mi North 9.2 mph - N/A   Clear
3:51 PM 77.0 °F 57.9 °F 52% 29.99 in 10.0 mi North 8.1 mph - N/A   Partly Cloudy
4:51 PM 75.0 °F 57.9 °F 55% 29.99 in 10.0 mi NE 6.9 mph - N/A   Scattered Clouds
5:51 PM 73.9 °F 59.0 °F 59% 29.98 in 10.0 mi NE 8.1 mph - N/A   Mostly Cloudy
6:51 PM 73.0 °F 57.9 °F 59% 29.99 in 10.0 mi ENE 3.5 mph - N/A   Overcast
7:51 PM 73.0 °F 59.0 °F 61% 29.98 in 10.0 mi NE 3.5 mph - N/A   Overcast
8:51 PM 73.0 °F 59.0 °F 61% 29.98 in 10.0 mi Calm Calm - N/A   Overcast
9:51 PM 70.0 °F 60.1 °F 71% 29.97 in 10.0 mi Calm Calm - N/A   Clear
10:51 PM 68.0 °F 59.0 °F 73% 29.97 in 10.0 mi SSE 4.6 mph - N/A   Clear
11:51 PM 68.0 °F 57.0 °F 68% 29.96 in 10.0 mi SSE 8.1 mph - N/A   Clear